Wind_Speed
7 7 6 6 6 6 7 7 6 6 6 5 5 5 5 5 4 5 5 5 4 4 3 1 4 5 4 1 1 2 2 3 4 4 4 4 4 4 5 5 6 7 8 8 8 8 8 10 12 14 15 16 16 15 14 16 18 19 19 19 18 17 17 17 18 18 18 19 19
7 7 6 6 6 6 6 6 6 6 6 5 5 5 5 5 5 5 5 5 6 6 4 3 5 6 5 2 0 2 2 2 3 4 5 4 4 4 4 5 5 6 6 7 8 8 9 10 12 14 15 16 17 17 16 15 17 19 19 20 19 18 18 18 18 19 19 20 20
8 7 7 7 6 6 6 6 6 6 6 6 5 5 5 5 6 6 5 5 6 6 5 5 7 7 6 4 1 1 2 2 2 4 5 5 5 4 4 4 4 5 5 6 7 8 9 10 12 13 14 16 17 18 18 16 16 17 18 19 20 20 19 19 19 19 20 20 21
8 8 7 7 7 6 6 6 6 6 6 5 6 6 6 6 7 7 7 6 6 6 5 6 8 8 7 5 2 0 1 1 1 2 4 5 5 4 4 4 4 4 5 6 7 7 8 9 11 13 14 15 17 18 18 17 16 16 17 18 19 20 20 20 20 20 20 21 22
9 8 7 7 6 6 5 5 5 5 5 5 5 6 6 6 7 8 8 7 7 6 5 6 8 8 7 6 3 1 1 1 1 1 2 3 4 4 4 4 4 4 5 6 7 7 8 9 10 12 13 14 15 16 17 16 16 16 16 17 18 20 21 21 20 20 21 21 22
9 8 7 6 6 6 6 6 6 5 5 5 5 6 6 6 7 8 9 8 8 6 5 5 7 8 6 6 5 3 2 1 1 1 1 1 3 3 3 3 3 4 5 6 6 7 8 9 10 12 13 14 15 15 15 16 16 17 17 17 17 19 21 22 21 21 21 22 22
9 8 8 7 7 7 7 6 6 5 5 5 5 5 6 6 7 7 7 7 7 6 5 6 7 7 6 6 6 5 4 2 1 1 1 1 1 2 2 2 2 3 4 5 6 6 7 8 10 11 13 13 14 14 15 15 16 17 18 17 18 18 20 21 21 21 21 22 23
9 8 8 7 7 7 7 6 6 5 5 4 5 5 6 6 5 4 4 4 4 5 6 7 7 6 4 5 6 6 5 4 2 1 1 1 1 1 1 1 1 2 3 4 5 6 7 7 9 11 12 13 14 14 14 15 16 17 18 18 18 19 19 20 21 21 21 22 23
10 9 8 7 7 7 7 6 6 5 4 4 4 5 5 4 3 2 2 3 3 3 5 5 4 3 3 4 5 6 5 4 3 2 1 1 1 2 1 1 1 2 3 4 5 6 6 7 8 10 11 13 13 14 14 15 16 17 18 19 19 19 19 20 21 22 22 22 23
10 9 8 8 7 7 7 6 5 5 4 4 4 4 3 3 2 2 3 3 3 3 2 0 1 1 2 3 3 4 4 4 3 2 2 2 2 2 2 1 1 2 3 4 5 5 6 6 7 9 10 12 12 13 13 14 16 17 18 19 19 19 19 20 21 22 23 23 23
10 9 8 8 8 7 7 7 6 5 4 4 4 4 3 2 2 2 3 3 3 3 2 3 2 2 2 2 2 3 4 4 4 3 3 2 2 2 2 1 1 2 4 4 5 5 6 6 6 8 10 12 12 12 13 14 16 17 18 18 19 19 20 21 22 23 23 23 23
10 9 8 8 8 7 7 7 6 5 5 4 4 4 3 3 2 2 3 3 3 4 4 4 3 3 3 4 4 4 5 6 5 4 4 3 3 3 3 2 2 3 4 5 5 5 5 6 6 8 10 11 12 13 14 14 15 16 17 18 19 20 21 21 22 23 23 23 24
10 9 9 8 8 8 8 7 7 6 5 4 4 4 3 3 3 2 3 3 3 4 5 5 4 3 3 4 4 5 5 6 5 5 4 4 4 4 4 4 4 4 4 5 5 5 5 6 6 7 9 11 12 13 14 14 15 16 17 18 19 20 21 21 22 22 23 24 24
11 10 9 9 9 8 8 8 7 6 5 5 4 4 4 4 3 3 3 3 2 2 4 6 5 3 3 4 4 4 5 5 5 5 5 5 4 4 4 4 4 4 4 5 5 5 6 6 6 7 8 10 11 12 13 14 15 15 16 18 19 20 20 21 22 22 23 24 25
11 11 10 9 9 9 9 8 8 7 6 5 5 5 5 4 3 3 3 2 1 0 1 5 6 5 4 3 3 4 5 6 6 6 5 5 4 4 4 4 4 4 4 4 5 5 5 6 6 7 8 9 10 11 12 13 14 15 16 17 18 19 19 20 21 22 23 24 25
12 12 11 10 10 10 9 9 8 7 6 5 5 5 5 5 4 3 2 1 1 2 1 4 6 6 5 4 3 4 5 7 7 6 5 5 5 4 4 4 4 4 4 4 4 4 4 5 5 6 7 8 9 10 11 12 13 14 15 16 17 18 18 19 21 22 23 24 25
13 13 12 11 11 10 10 10 9 8 7 6 5 5 6 5 5 3 2 1 1 1 2 5 6 7 6 5 3 3 5 7 7 7 7 7 6 6 5 4 4 3 3 3 3 4 4 4 4 5 6 7 8 9 10 11 12 13 15 15 16 17 18 19 20 21 22 23 24
15 14 13 12 11 11 11 10 10 9 8 7 6 6 6 6 5 4 3 2 1 0 2 5 7 7 6 5 4 3 4 7 8 8 8 7 7 7 7 6 5 4 3 3 3 3 3 4 4 4 5 6 7 8 9 10 11 12 14 15 15 16 16 18 19 20 22 23 23
16 15 14 13 12 11 11 11 11 11 10 8 7 6 7 6 5 4 3 3 2 2 3 5 7 7 7 5 4 3 5 7 8 8 8 8 8 7 7 7 6 5 4 3 3 3 3 4 4 4 5 5 6 7 8 9 10 12 13 14 14 15 15 17 18 19 20 22 23
16 16 15 13 12 12 11 12 12 12 11 10 8 8 8 7 6 5 4 3 3 3 3 5 7 8 7 6 5 4 5 7 8 8 8 8 8 7 7 7 7 6 5 4 3 3 4 4 4 4 4 5 5 6 7 8 9 11 12 13 14 14 15 15 16 18 19 20 22
17 16 15 13 12 12 12 12 12 13 12 12 10 9 9 8 7 5 4 3 3 3 4 4 6 8 8 7 5 5 5 6 8 9 8 8 8 7 7 7 7 6 6 5 4 3 4 4 4 4 5 5 5 5 6 7 9 10 11 12 13 13 14 15 16 17 18 19 20
17 16 14 13 12 12 12 12 13 14 14 13 12 11 10 9 8 6 5 4 3 3 3 4 5 7 8 7 6 5 5 6 8 9 9 8 8 7 7 7 7 7 6 5 5 4 3 4 4 4 5 5 5 5 5 6 8 9 10 11 12 13 13 14 15 16 17 18 19
17 16 14 13 13 13 13 13 14 15 15 14 13 12 11 10 9 7 6 5 4 3 3 3 4 6 7 7 6 5 5 6 8 8 9 8 8 7 7 7 7 7 7 6 5 5 4 4 5 5 5 5 5 5 6 7 7 8 9 10 11 12 13 14 14 15 16 17 18
17 16 15 14 14 14 14 15 15 16 16 15 14 13 12 11 10 9 7 6 5 4 3 3 4 5 6 7 7 6 6 7 8 8 8 8 8 7 7 7 7 8 7 7 6 5 5 4 4 5 5 5 5 6 6 7 8 8 9 10 10 11 12 13 14 15 15 16 17
18 17 16 15 15 15 15 16 16 17 17 16 15 13 13 12 11 10 8 7 6 5 4 4 5 5 6 7 7 6 6 7 9 9 9 8 8 8 7 7 7 8 7 7 6 5 5 5 4 5 5 5 5 5 6 7 8 8 9 9 10 11 12 13 13 14 15 15 16
19 18 17 17 16 16 16 16 17 17 17 16 15 14 14 13 12 11 9 8 7 6 5 5 5 6 6 6 7 7 7 8 9 9 9 9 8 8 8 8 7 7 7 7 6 6 5 5 5 5 5 6 5 5 5 6 7 8 9 9 10 11 12 13 13 14 14 14 15
20 19 18 18 17 17 17 17 17 17 17 17 16 15 14 14 13 12 10 9 8 6 6 5 6 6 6 7 7 7 7 8 9 9 9 9 8 8 8 8 7 7 7 6 6 6 6 6 5 5 5 6 6 5 6 6 6 8 9 9 10 11 12 12 13 13 13 14 14
21 20 19 19 18 17 17 17 17 18 18 17 17 16 15 14 14 13 12 10 9 7 7 6 6 7 7 8 8 8 8 8 9 10 9 9 9 8 8 8 7 7 6 6 6 6 6 6 6 5 5 6 6 6 6 6 7 8 9 10 10 10 11 12 12 13 13 13 14
22 21 21 20 19 18 18 18 18 18 18 18 17 16 16 15 15 14 13 12 10 9 8 7 7 8 9 9 9 8 8 9 9 10 10 9 9 8 8 8 7 6 6 6 6 6 7 7 6 6 5 5 6 7 6 7 8 8 9 10 10 10 11 11 12 12 13 13 14
23 23 22 21 20 19 19 19 18 18 18 18 18 17 17 17 16 15 14 13 11 10 8 8 8 9 10 10 9 9 9 9 9 10 10 10 10 9 8 8 7 6 6 6 6 6 7 7 7 6 5 5 6 7 7 7 8 9 10 10 10 10 11 11 12 13 13 14 15
25 24 23 23 21 20 19 19 18 18 18 18 18 18 18 18 17 16 15 14 12 10 9 8 9 10 10 10 10 9 9 9 10 10 10 10 10 9 9 8 7 7 6 6 6 7 7 7 7 6 5 5 6 7 8 8 8 9 10 10 10 10 11 11 12 13 14 14 16
26 25 25 24 22 21 20 19 19 19 19 19 19 19 19 18 18 16 15 14 12 11 10 9 10 10 11 11 10 10 10 10 9 10 10 10 10 9 9 9 8 7 6 6 6 6 7 7 7 6 4 4 6 7 7 8 8 9 9 10 10 10 10 11 12 13 14 15 16
27 26 26 25 23 22 20 20 19 19 19 20 20 20 20 19 18 16 15 14 13 12 11 10 10 11 12 12 11 11 11 10 9 9 9 10 10 10 9 9 8 7 7 7 6 6 6 7 6 5 4 4 5 5 6 7 7 8 8 9 9 9 9 10 11 12 13 14 15
28 28 27 26 24 22 21 21 20 20 20 20 20 20 20 19 19 18 17 16 14 12 11 10 10 11 11 12 12 12 11 10 9 9 10 10 11 10 10 10 9 8 7 7 7 7 6 6 5 4 4 3 4 5 5 6 6 7 8 8 9 9 9 9 10 11 12 13 15
29 29 28 27 25 23 22 22 21 21 21 21 21 21 21 20 19 19 18 17 15 13 11 10 9 10 11 12 12 12 11 11 10 10 10 11 12 11 11 10 9 8 7 7 7 7 6 6 5 4 4 5 5 6 6 6 7 7 7 8 8 8 8 8 9 10 11 13 14
31 30 29 28 26 25 24 23 22 22 22 22 23 22 22 21 20 19 18 17 16 14 13 11 11 11 11 12 13 12 12 10 10 9 10 11 12 12 12 11 10 9 7 7 7 7 6 5 5 4 5 6 7 7 7 8 8 8 8 8 8 8 8 8 8 9 11 12 13
31 31 30 29 27 26 25 24 24 23 24 24 24 23 22 21 20 19 19 18 17 16 14 13 12 12 12 13 14 13 12 10 9 9 9 10 11 12 12 11 10 9 8 7 7 7 6 6 5 5 6 6 7 7 8 8 9 9 9 9 9 9 8 8 8 9 10 11 12
31 32 31 30 29 27 26 25 25 25 25 25 24 23 22 22 21 21 20 19 18 17 16 14 13 13 13 14 14 14 12 10 9 8 8 9 10 11 11 11 11 9 8 8 8 8 7 6 6 6 6 7 7 8 8 9 8 9 9 9 10 9 9 8 9 9 10 10 11
31 32 32 31 30 29 28 27 26 26 25 25 24 24 23 22 22 22 21 20 19 17 16 15 14 14 14 14 14 14 12 11 9 8 8 9 9 10 11 11 11 10 9 8 8 8 7 7 7 7 7 7 8 9 9 9 9 9 9 10 10 10 10 9 10 10 11 11 11
31 32 32 32 31 30 29 28 27 26 25 25 25 24 23 23 22 22 21 20 19 17 16 15 15 14 14 15 14 14 13 11 9 9 8 8 9 9 10 11 11 11 10 8 8 8 8 7 7 7 7 8 8 9 9 9 10 11 11 10 10 10 10 10 11 11 12 12 13
30 32 32 32 32 31 30 28 27 26 25 24 24 24 23 23 22 22 22 21 19 18 17 16 15 15 15 15 14 14 13 12 10 9 9 8 9 9 9 10 10 10 10 9 8 8 8 7 7 7 8 8 9 9 10 10 11 11 12 11 10 10 11 11 11 12 13 13 14
Wind_Direction
219 218 216 214 213 210 208 205 204 205 209 215 217 212 211 218 218 214 210 211 228 230 221 225 269 254 235 216 22 356 345 354 9 18 26 33 34 26 15 4 352 350 358 11 18 22 24 25 26 23 21 19 15 10 5 4 11 15 16 13 10 7 5 3 1 359 358 356 355
218 217 215 214 212 212 211 207 206 205 206 211 216 220 225 230 222 221 221 218 223 227 229 239 264 247 219 189 93 7 350 347 359 8 16 28 39 39 30 17 1 354 359 12 20 24 25 25 27 23 20 19 17 13 9 7 10 14 16 15 13 10 8 6 4 3 2 0 360
218 217 217 215 214 213 210 206 204 203 204 207 211 218 225 231 232 234 236 236 229 229 237 249 262 245 217 185 157 20 354 336 340 357 7 17 31 40 40 30 14 2 3 13 20 23 25 28 28 25 21 20 17 14 12 11 11 12 14 15 14 13 11 9 7 6 5 4 3
218 218 218 218 217 214 210 207 204 202 204 208 214 220 227 233 237 242 245 243 233 232 240 251 261 250 224 192 181 12 349 330 322 343 358 7 16 29 38 36 26 16 12 15 19 21 24 30 30 27 24 23 19 17 15 16 15 14 14 15 15 14 13 11 10 9 8 6 6
218 220 221 221 218 214 210 207 205 204 207 213 219 226 233 239 243 245 242 234 228 229 239 254 262 256 234 202 200 233 293 315 330 338 349 358 2 12 26 34 33 25 19 19 20 21 24 30 32 29 26 24 21 18 18 20 20 18 16 16 15 15 14 13 13 12 11 9 8
219 221 222 221 216 211 208 206 205 207 213 221 227 233 240 248 251 245 238 233 226 223 231 253 260 259 242 207 200 213 247 292 356 7 359 359 359 1 7 21 28 27 27 25 24 26 28 32 32 30 27 25 22 20 20 22 23 22 19 17 16 15 14 14 14 14 13 12 11
221 221 221 219 214 209 207 206 207 210 218 228 236 243 250 258 258 250 240 232 222 214 220 238 250 256 246 213 200 205 220 241 294 17 37 43 34 18 11 8 15 26 31 29 27 29 33 36 34 29 27 25 21 20 20 22 24 24 21 19 17 16 15 14 15 16 15 13 13
221 222 222 218 213 209 207 207 208 211 220 232 244 252 259 265 261 249 228 213 207 213 225 237 246 248 237 214 202 202 209 217 225 222 63 60 75 67 40 26 23 28 33 33 31 32 36 40 36 31 28 25 23 22 22 22 25 26 24 21 19 17 16 15 17 18 18 16 15
219 220 220 217 212 208 207 209 210 214 222 234 247 255 259 262 245 195 160 158 184 224 243 249 247 225 203 201 201 204 206 207 207 194 151 75 91 95 85 62 45 41 41 40 38 38 41 43 39 35 32 29 28 26 24 24 27 27 25 23 21 20 18 17 19 20 21 19 17
220 220 219 214 208 207 207 209 211 214 223 235 247 250 249 240 195 154 146 159 190 215 238 343 75 136 160 180 193 196 193 184 176 161 136 96 96 102 104 86 62 54 55 54 48 45 46 48 42 38 36 34 33 31 28 27 29 28 26 24 23 22 21 20 20 22 23 22 19
222 223 220 214 208 207 208 209 209 211 219 233 243 242 228 199 162 144 147 161 170 161 121 93 92 103 114 121 138 147 147 140 139 134 124 113 109 115 118 110 85 64 59 60 57 54 52 52 46 42 39 38 36 35 33 32 32 30 28 26 26 25 23 22 21 22 23 23 21
223 222 219 214 211 210 211 210 210 212 217 229 236 229 203 172 148 133 127 128 131 127 121 115 105 100 99 99 105 118 127 130 131 130 129 123 114 114 118 109 93 72 63 62 66 65 61 57 51 44 42 42 40 39 39 37 34 31 29 28 27 26 24 23 22 22 23 24 23
222 222 219 214 212 211 211 212 214 215 218 223 222 207 182 161 140 117 107 109 115 122 126 126 118 105 98 97 100 112 123 127 129 131 132 127 113 108 107 101 94 81 69 65 68 68 67 65 57 49 46 46 45 44 43 41 36 33 30 29 28 26 25 23 22 22 23 24 25
222 221 219 215 213 212 212 213 215 216 217 216 205 187 169 154 131 102 92 98 105 114 124 134 132 119 101 98 102 114 125 130 133 138 140 135 124 112 106 106 98 88 76 70 68 67 67 68 62 55 51 49 49 48 46 44 40 36 33 31 29 27 26 25 24 24 24 25 25
221 221 220 217 213 211 211 213 215 217 215 208 193 176 160 144 121 92 78 81 53 12 132 143 139 131 117 111 116 132 142 141 140 140 140 137 136 126 118 122 111 94 80 76 74 72 70 70 64 59 56 56 54 51 48 47 44 40 37 34 33 30 28 27 26 26 26 26 26
221 220 219 218 214 212 210 211 214 216 213 205 188 169 153 142 125 105 93 98 293 288 216 157 144 136 129 124 131 149 152 143 136 128 119 115 117 116 115 121 111 98 87 82 75 76 77 76 70 62 59 61 60 56 52 48 46 43 40 38 36 34 32 30 30 29 29 29 28
222 221 220 218 215 212 210 208 209 211 211 204 186 163 149 143 137 131 126 130 268 267 197 158 149 143 140 142 153 158 146 133 125 115 104 96 93 89 87 89 89 90 89 83 76 75 80 85 80 70 62 63 63 62 58 53 49 46 43 40 39 38 36 34 34 33 32 31 30
222 221 221 219 217 214 210 206 206 206 206 202 185 163 150 148 149 145 134 115 98 183 161 153 153 150 147 146 152 147 134 129 121 112 103 96 89 84 80 77 76 77 82 87 88 84 82 87 89 79 68 64 65 64 62 58 55 51 46 42 40 39 39 38 37 36 35 34 33
224 223 221 220 218 215 210 206 203 201 200 198 187 169 159 158 157 154 144 123 102 107 138 149 153 152 148 142 135 130 130 131 122 114 107 101 94 87 82 78 76 73 76 89 104 102 96 93 95 88 75 69 66 66 65 63 60 56 51 46 42 40 40 40 40 39 39 37 36
226 225 223 222 219 216 210 206 201 198 197 195 189 179 171 169 167 164 156 138 109 101 118 141 149 149 146 140 133 128 127 130 125 117 109 104 98 91 84 80 77 74 73 79 105 118 114 103 101 92 83 75 70 68 67 66 64 60 55 49 44 42 41 42 42 42 41 40 39
229 228 226 224 220 216 210 205 200 197 195 194 191 186 180 178 176 173 165 147 118 104 110 131 144 146 142 138 133 128 127 129 126 119 110 105 98 91 85 80 78 76 73 67 75 105 121 116 107 98 89 81 75 72 70 68 66 62 57 51 46 43 42 42 43 43 42 41 40
231 229 227 224 220 215 210 204 200 198 196 195 193 190 186 184 182 179 173 159 134 117 116 130 144 145 142 139 136 133 132 132 127 119 110 104 98 91 85 80 78 77 73 64 55 65 96 122 122 111 97 86 80 75 72 69 66 62 56 52 47 44 42 41 42 42 42 42 41
231 228 225 221 218 213 208 204 201 199 197 196 194 193 190 188 186 184 179 170 152 134 128 137 149 151 149 145 143 142 142 139 130 120 112 105 100 93 86 80 76 75 72 65 54 47 58 104 127 124 110 96 86 80 75 68 66 62 56 52 48 45 42 41 41 41 41 41 41
230 226 223 219 215 212 207 204 202 200 198 197 195 194 193 191 190 188 185 177 163 151 145 152 161 164 160 154 150 149 148 144 132 121 112 106 101 94 87 81 76 73 70 66 56 42 41 67 107 122 122 110 96 87 81 75 70 63 57 52 47 44 42 42 41 41 40 40 39
229 225 221 218 214 211 207 205 203 201 200 198 197 196 195 194 194 192 188 181 171 162 160 165 170 173 169 160 155 152 151 146 134 121 111 104 101 96 90 82 76 72 70 69 65 57 51 59 86 113 125 121 105 91 85 79 71 64 58 53 48 43 41 40 40 40 39 38 37
228 223 220 217 215 212 208 206 204 203 201 200 198 197 196 196 196 194 190 184 177 171 170 173 176 176 172 163 156 153 153 148 136 122 109 101 98 95 91 84 78 74 71 71 73 73 70 70 80 103 120 123 112 101 91 81 72 66 60 57 50 45 40 38 37 37 37 37 36
226 222 218 216 214 212 209 207 205 204 203 201 199 197 197 197 197 195 192 187 181 178 178 180 180 177 172 165 158 156 155 148 135 122 110 102 96 92 89 85 81 78 77 75 74 74 75 76 79 93 111 121 118 108 98 89 79 70 65 61 55 48 43 39 37 36 36 36 35
224 220 216 214 213 211 209 207 205 205 204 202 200 198 197 198 197 196 193 189 185 184 185 184 181 178 174 168 161 159 156 148 137 125 114 105 99 94 90 87 84 82 80 78 77 75 74 76 78 87 104 119 122 114 102 92 82 73 66 62 58 52 48 44 41 38 37 37 37
222 217 214 212 211 210 208 207 206 205 204 202 200 198 197 198 198 196 193 191 189 188 188 185 182 181 177 169 164 161 156 148 138 127 117 108 101 96 92 89 88 86 83 80 79 77 76 76 77 83 98 121 127 119 104 92 82 72 65 60 59 56 52 49 46 42 40 40 41
219 215 212 211 210 209 207 206 206 205 203 202 200 198 197 197 197 196 194 192 191 190 187 185 185 182 178 172 166 160 152 143 136 127 117 109 104 99 94 92 89 87 85 83 82 80 78 77 78 82 97 120 126 117 103 91 82 75 68 64 61 59 56 53 50 46 44 43 42
217 213 210 209 208 207 206 205 204 203 202 201 200 198 198 198 198 197 195 193 191 188 186 185 185 182 178 174 167 156 146 139 134 126 118 111 107 102 99 95 89 85 84 85 85 84 81 80 80 84 96 114 119 115 106 95 86 80 75 70 65 62 59 56 53 49 46 44 41
216 211 209 208 207 206 205 203 202 201 201 200 200 199 199 199 198 197 195 193 191 188 186 185 183 181 179 175 167 155 146 140 133 126 119 114 109 107 104 98 92 87 85 87 88 88 86 83 82 85 95 112 120 119 114 105 95 88 81 75 69 65 63 62 58 55 51 47 43
215 210 208 207 206 204 202 200 200 200 200 200 199 199 199 199 198 196 194 193 192 191 188 184 182 181 179 176 168 159 151 145 138 133 125 119 114 110 106 101 95 91 88 88 89 91 90 88 87 89 98 119 131 130 125 118 107 97 87 79 74 71 70 68 67 63 57 52 48
213 209 206 206 204 202 200 199 198 198 199 199 199 199 199 198 197 195 193 192 193 192 190 185 182 182 182 179 171 161 152 146 143 139 133 126 120 113 107 101 97 92 89 89 90 91 93 93 92 90 94 114 129 133 129 122 114 104 94 84 79 76 74 74 73 68 61 55 50
212 207 205 204 203 200 198 197 197 197 197 197 198 198 199 199 197 195 193 191 191 190 188 183 179 179 180 178 170 158 149 145 146 145 140 132 124 116 108 101 98 94 89 89 89 91 93 95 94 88 82 89 101 108 113 113 111 106 98 90 81 75 73 76 77 73 67 58 51
211 206 203 202 201 199 197 195 195 196 196 197 197 197 197 198 198 196 193 190 189 188 185 179 176 175 175 171 164 154 148 149 151 151 146 140 131 120 111 104 99 94 89 88 89 89 90 91 92 90 84 82 88 96 103 106 106 104 100 93 83 75 72 75 77 76 71 62 52
211 206 203 201 200 198 196 195 195 195 196 197 197 197 196 197 197 195 193 190 189 186 183 178 174 172 169 165 159 154 151 152 153 153 150 146 137 125 114 106 100 95 91 89 89 88 85 82 86 89 88 84 87 96 104 106 106 103 98 91 85 78 73 76 78 77 72 63 52
211 207 203 201 199 198 196 195 195 196 197 197 197 197 197 196 196 195 193 191 189 185 181 177 173 169 164 160 156 154 153 152 151 149 146 144 138 128 119 110 103 98 94 91 89 88 83 74 71 78 84 83 83 89 99 104 103 100 94 89 86 80 76 77 79 78 72 64 52
212 207 204 202 200 198 197 196 197 198 198 197 197 197 197 196 196 195 193 192 189 185 180 176 171 166 161 158 157 156 156 154 149 145 141 138 135 130 123 115 108 102 97 92 91 89 82 70 64 70 81 84 81 82 88 95 98 96 91 88 86 83 78 75 75 73 70 66 57
213 208 205 203 201 199 198 197 198 199 199 198 197 196 196 196 196 195 194 192 190 186 180 174 169 164 161 160 160 160 160 158 152 145 141 137 136 132 126 118 111 104 98 92 90 89 83 70 61 67 78 86 85 82 81 85 91 93 90 86 83 82 79 74 71 67 65 64 61
214 209 206 204 203 201 200 199 199 200 200 199 198 197 196 195 195 194 192 191 189 186 181 174 168 165 164 163 164 164 163 161 156 150 144 139 136 133 127 118 111 104 98 92 89 88 84 74 61 61 70 82 85 82 76 73 77 82 84 81 79 77 75 72 68 63 59 58 58
Height
752 752 752 752 752 752 752 753 753 753 753 753 753 753 753 753 753 754 754 754 754 754 754 754 753 753 753 753 753 753 752 752 752 752 751 751 751 751 751 751 750 750 750 750 750 750 749 748 747 746 745 745 744 743 743 742 741 740 739 738 737 736 735 733 732 731 730 728 727
751 751 752 752 752 752 752 752 752 752 752 752 753 753 753 753 753 753 753 753 753 753 753 753 752 752 752 752 752 752 752 752 752 751 751 751 751 751 750 750 750 750 750 750 750 750 749 749 748 747 746 745 744 743 743 742 741 740 739 738 737 736 735 733 732 731 730 728 727
751 751 751 751 751 751 751 751 751 752 752 752 752 752 752 752 752 752 752 752 752 752 752 752 751 751 751 752 752 751 751 751 751 751 751 751 750 750 750 750 750 750 750 750 750 750 749 749 748 747 746 745 744 743 743 742 741 740 739 738 737 736 735 734 732 731 730 728 727
750 751 751 751 751 751 751 751 751 751 751 751 751 751 751 752 752 752 752 752 752 752 752 751 751 750 750 751 751 751 751 751 751 751 751 750 750 750 750 750 750 750 750 750 750 750 749 749 748 747 746 745 745 744 743 742 741 740 740 739 738 736 735 734 733 731 730 729 727
750 750 750 750 750 750 750 750 751 751 751 751 751 751 751 751 751 751 751 751 751 751 751 750 750 750 750 750 750 750 750 750 750 750 750 750 750 750 750 750 750 750 750 750 750 750 749 749 748 747 747 746 745 744 744 742 741 740 740 739 738 737 736 735 733 732 730 729 728
750 750 750 750 750 750 750 750 750 750 750 750 750 750 750 750 750 750 750 750 750 750 750 750 749 749 749 749 750 750 750 750 750 750 750 750 750 750 750 750 750 750 750 750 750 750 749 749 748 747 747 746 745 745 744 743 742 741 740 739 739 737 736 735 734 732 731 730 728
750 750 750 750 750 750 750 750 750 750 750 750 750 750 750 749 749 749 749 749 749 749 749 749 748 748 748 749 749 749 749 750 749 750 750 750 750 750 750 750 750 750 750 750 750 749 749 749 748 748 747 746 746 745 744 743 742 741 740 740 739 738 737 735 734 733 731 730 729
749 749 749 749 749 749 749 749 749 749 749 749 749 749 749 749 748 748 748 748 748 748 748 748 748 747 748 748 748 748 749 749 749 749 749 749 749 749 750 750 750 750 750 750 750 749 749 749 748 748 747 746 746 745 744 743 742 741 740 740 739 738 737 736 735 733 732 730 729
749 749 749 749 749 749 749 749 749 749 749 749 749 748 748 748 748 748 748 748 748 748 747 747 747 747 747 747 747 748 748 748 748 749 749 749 749 749 749 750 750 750 750 749 749 749 749 748 748 748 747 746 746 745 745 744 743 742 741 740 739 739 738 737 735 734 732 731 730
748 748 748 748 748 748 748 748 748 748 748 748 748 748 748 748 747 747 747 747 747 747 747 747 747 747 747 747 747 747 747 747 748 748 748 749 749 749 749 749 749 749 749 749 749 749 749 748 748 748 747 747 746 745 745 744 743 742 742 741 740 739 738 737 735 734 733 731 730
748 748 748 748 748 748 748 748 748 748 748 748 748 747 747 747 747 747 747 747 747 747 747 747 747 746 746 746 746 746 747 747 747 748 748 748 748 748 749 749 749 749 749 749 749 749 749 748 748 747 747 747 746 745 745 744 743 743 742 741 740 739 738 737 736 735 733 732 731
747 747 747 747 747 747 747 747 747 747 747 747 747 747 747 747 747 747 747 746 747 747 747 746 746 746 746 746 746 746 746 747 747 747 748 748 748 748 748 749 749 749 749 749 749 748 748 748 748 747 747 747 746 746 745 744 744 743 742 741 740 740 738 737 736 735 734 733 731
747 747 747 747 747 747 747 747 747 747 747 747 747 747 747 747 747 747 746 746 746 746 746 746 746 746 746 746 746 746 746 746 747 747 747 748 748 748 748 748 748 749 749 749 748 748 748 748 748 747 747 747 746 746 745 745 744 743 743 742 741 740 739 738 737 736 735 733 732
746 746 746 746 746 746 746 746 746 746 746 747 747 747 746 746 746 746 746 746 746 746 746 746 746 746 746 746 746 746 746 746 746 747 747 747 747 748 748 748 748 748 748 748 748 748 748 748 748 747 747 747 746 746 745 745 744 744 743 742 741 740 740 739 738 736 735 734 732
745 745 746 746 746 746 746 746 746 746 746 746 746 746 746 746 746 746 746 746 746 746 746 746 746 746 746 746 746 746 746 746 746 746 747 747 747 747 747 748 748 748 748 748 748 748 748 748 748 748 747 747 746 746 745 745 745 744 743 743 742 741 740 740 738 737 736 735 733
745 745 745 745 745 745 745 745 745 745 745 746 746 746 746 746 746 746 746 746 746 746 745 746 746 746 746 746 746 745 745 745 746 746 746 746 747 747 747 747 747 748 748 748 748 748 748 748 748 748 747 747 747 746 746 745 745 744 744 743 743 742 741 740 739 738 737 736 734
744 744 744 744 745 745 745 745 745 745 745 745 745 745 745 745 745 746 746 746 746 745 745 745 746 746 746 746 746 745 745 745 746 746 746 746 746 747 747 747 747 747 748 748 748 748 748 748 748 748 747 747 747 746 746 745 745 745 744 744 743 742 742 741 740 739 738 736 735
743 743 743 743 744 744 744 744 744 744 744 745 745 745 745 745 745 745 746 746 745 745 745 745 745 746 746 746 745 745 745 745 745 746 746 746 746 747 747 747 747 747 747 747 747 748 748 748 748 748 747 747 747 746 746 745 745 745 745 744 744 743 742 741 740 740 739 738 737
742 742 742 743 743 743 743 744 744 744 744 744 744 745 745 745 745 745 745 745 745 745 745 745 745 745 745 745 745 745 745 745 745 746 746 746 746 747 747 747 747 747 747 747 747 747 747 747 747 747 747 747 747 746 746 746 745 745 745 745 744 744 743 742 741 740 740 739 738
741 741 741 742 742 742 743 743 743 743 744 744 744 744 745 745 745 745 745 745 745 745 745 745 745 745 745 745 745 745 745 745 745 745 746 746 746 746 747 747 747 747 747 747 747 747 747 747 747 747 747 747 747 746 746 746 745 745 745 745 745 744 743 743 742 741 740 740 739
740 740 740 741 741 742 742 742 743 743 743 743 744 744 744 745 745 745 745 745 745 745 745 745 745 745 745 745 745 745 745 745 745 745 746 746 746 746 746 746 747 747 747 746 746 746 747 747 747 747 747 747 747 746 746 746 745 745 745 745 745 744 744 743 742 742 741 740 739
739 740 740 740 741 741 741 742 742 742 743 743 743 744 744 744 744 745 745 745 745 745 745 745 745 745 745 745 745 745 745 745 745 745 746 746 746 746 746 746 746 746 747 746 746 746 746 746 747 747 747 747 747 746 746 746 746 745 745 745 745 745 744 744 743 742 742 741 740
738 739 740 740 740 740 741 741 741 742 742 742 743 743 743 744 744 744 745 745 745 744 744 745 745 745 745 745 745 745 745 745 745 745 746 746 746 746 746 746 746 746 746 747 746 746 746 746 746 747 747 747 747 746 746 746 746 746 746 745 745 745 744 744 743 743 742 741 741
738 738 739 739 740 740 740 740 741 741 742 742 742 743 743 743 744 744 744 744 744 744 744 744 745 745 745 745 745 745 745 745 745 745 746 746 746 746 746 746 746 746 746 746 746 746 746 745 746 746 747 747 747 747 746 746 746 746 746 745 745 745 745 744 744 743 743 742 741
737 738 738 738 739 739 739 740 740 740 741 741 742 742 742 743 743 743 744 744 744 744 744 744 744 744 745 745 745 745 745 745 745 745 745 746 746 746 746 746 746 746 746 747 747 747 746 746 745 746 746 746 747 746 746 746 746 746 746 745 745 745 745 744 744 743 743 742 742
736 737 737 737 738 738 738 739 739 740 740 741 741 742 742 742 743 743 743 744 744 744 744 744 744 744 744 745 745 745 745 745 745 745 745 746 746 746 746 746 746 746 746 746 747 746 746 746 746 746 746 746 746 746 746 746 746 746 746 746 745 745 745 744 744 744 743 743 742
735 735 736 736 737 737 738 738 739 739 740 740 741 741 741 742 742 743 743 743 743 744 744 744 744 744 744 744 745 745 745 745 745 745 745 746 746 746 746 746 746 746 746 746 746 746 746 746 746 745 745 746 746 746 746 746 746 746 746 746 745 745 745 745 744 744 744 743 742
733 734 735 735 736 736 737 737 738 739 739 740 740 740 741 741 742 742 742 743 743 743 743 744 744 744 744 744 745 745 745 745 745 745 745 746 746 746 746 746 746 746 746 746 746 746 746 746 746 745 745 745 746 746 746 746 746 746 746 746 745 745 745 745 745 744 744 743 743
731 733 733 734 734 735 736 736 737 738 738 739 740 740 740 741 741 741 742 742 743 743 743 743 743 744 744 744 744 745 745 745 745 745 745 745 746 746 746 746 746 746 746 746 746 746 746 746 745 745 745 745 745 745 745 745 746 746 746 746 745 745 745 745 745 745 744 744 743
730 731 732 732 733 734 735 735 736 737 738 738 739 740 740 740 740 741 741 742 742 742 743 743 743 743 744 744 744 745 745 745 745 745 745 745 745 746 746 746 746 746 746 746 746 746 746 746 745 745 745 745 745 745 745 745 745 745 745 746 745 745 745 745 745 745 745 744 744
728 729 730 731 731 732 733 734 735 736 737 738 738 739 739 740 740 740 741 741 742 742 742 743 743 743 743 744 744 744 745 745 745 745 745 745 745 746 746 746 746 746 746 746 746 746 746 746 746 745 745 745 745 745 745 745 745 745 745 745 745 745 745 745 745 745 745 745 744
726 727 728 729 730 731 732 733 734 735 736 737 737 738 738 739 739 740 740 741 741 742 742 742 743 743 743 744 744 744 745 745 745 745 745 745 745 746 746 746 746 746 746 746 746 746 746 746 746 745 745 745 745 745 745 745 745 745 745 745 746 746 746 746 745 745 745 745 745
725 726 727 728 729 730 731 732 733 734 735 736 736 737 738 738 739 740 740 741 741 741 742 742 742 743 743 743 744 744 744 745 745 745 745 745 746 746 746 746 746 746 746 746 746 746 746 746 745 745 745 745 745 745 745 745 745 745 745 745 746 746 746 746 746 746 746 745 745
723 724 725 726 727 728 730 730 731 733 734 735 735 736 737 738 738 739 740 740 741 741 741 742 742 742 743 743 743 744 744 745 745 745 745 745 745 746 746 746 746 746 746 746 746 746 746 745 745 745 745 745 745 745 745 745 745 745 745 745 745 746 746 746 746 746 746 746 745
721 722 724 725 726 727 728 729 730 731 732 733 735 735 736 737 737 738 739 740 740 741 741 742 742 742 743 743 744 744 744 745 745 745 745 745 745 746 746 746 746 747 747 746 746 746 746 745 745 745 745 744 744 744 744 745 745 745 745 745 745 746 746 746 746 746 746 746 746
719 720 722 723 725 726 727 728 729 730 731 732 733 734 735 736 737 737 738 739 740 740 741 741 742 742 743 743 744 744 744 745 745 745 745 745 745 745 746 746 746 747 747 747 746 746 746 745 745 745 745 744 744 744 744 744 745 745 745 745 745 745 746 746 746 746 746 746 746
717 719 720 721 723 724 725 726 727 728 730 730 731 733 734 735 736 737 738 739 739 740 740 741 741 742 742 743 743 744 744 745 745 745 745 745 745 745 746 746 746 747 747 747 747 746 746 745 745 745 745 744 744 744 744 744 745 745 745 745 745 745 745 745 746 746 746 746 746
716 717 719 720 721 722 724 725 725 727 728 729 730 731 733 734 735 736 737 738 738 739 740 741 741 742 742 743 743 744 744 745 745 745 745 745 745 745 746 746 746 747 747 747 747 746 746 746 745 745 745 744 744 744 744 744 745 745 745 745 745 745 745 745 745 745 745 746 746
715 716 717 718 720 720 722 723 724 725 726 728 729 730 732 733 734 735 736 737 738 739 740 740 741 742 742 743 743 744 744 745 745 745 745 745 746 746 746 746 746 747 747 747 747 747 746 746 745 745 745 745 744 744 745 745 745 745 745 745 745 745 745 745 745 745 745 745 745
714 715 716 717 718 719 720 721 722 724 725 726 728 729 730 732 733 734 735 736 738 738 739 740 741 741 742 743 743 744 744 745 745 745 745 745 746 746 746 746 746 747 747 747 747 747 747 746 746 745 745 745 745 745 745 745 744 744 745 745 745 745 745 745 745 745 745 745 745
713 714 715 716 717 718 719 720 721 722 724 725 727 728 730 731 732 734 735 736 737 738 739 740 740 741 742 742 743 744 744 745 745 745 745 745 746 746 746 746 747 747 747 747 748 747 747 746 746 745 745 745 745 745 745 745 744 744 745 745 745 745 745 745 745 745 745 745 745